Tracking 20721 objects as of 31-May-2020
HD Live streaming from Space Station
objects crossing your sky now
Track the CREW DRAGON and SPACE STATION

FENGYUN 1C DEB

Track FENGYUN 1C DEB now!
10-day predictions


NORAD ID: 31041
Int'l Code: 1999-025BEK
Perigee: 818.4 km
Apogee: 979.7 km
Inclination: 99.2 °
Period: 102.8 minutes
Semi major axis: 7270 km
RCS: 0.0058 m2 (small)
Launch date: May 10, 1999
Source: People's Republic of China (PRC)
Launch site: Taiyaun Space Center, China (TSC)

Note: This is SATELLITE DEBRIS
aabbcc
Your satellite tracking list
Your tracking list is empty




NASA's NSSDC Master Catalog

Two Line Element Set (TLE):
1 31041U 99025BEK 20150.85696872 +.00001023 +00000-0 +68166-3 0  9999
2 31041 099.1794 118.4230 0110931 171.5271 188.7800 14.00532564670586
Source of the keplerian elements: AFSPC